Regional Weather Roundup
Issued by NWS

Home | Current Version | Previous Version | Graphics & Text | Print | Product List | Glossary On
Versions: 1 2 3 4 5 6 7 8 9 10 11 12 13 14 15 16 17 18 19 20 21 22 23 24 25 26 27 28 29 30 31 32 33 34 35 36 37 38 39 40 41 42 43 44 45 46 47 48 49 50
550
ASUS45 KPSR 261110
RWRAZ

ARIZONA HOURLY REGIONAL WEATHER ROUNDUP
NATIONAL WEATHER SERVICE PHOENIX AZ
400 AM MST TUE JUL 26 2016

NOTE: FAIR INDICATES FEW OR NO CLOUDS BELOW 12,000 FEET WITH NO
SIGNIFICANT WEATHER AND/OR OBSTRUCTIONS TO VISIBILITY.

AZZ001>003-036-261200-
NORTHWEST ARIZONA

CITY           SKY/WX    TMP DP  RH WIND       PRES   REMARKS
BULLHEAD CITY  CLEAR     91  55  29 SE5       29.80R
KINGMAN        MOCLDY    84  48  28 VRB3      30.03S
$$

AZZ004>008-015-016-018-261200-
NORTH CENTRAL ARIZONA

CITY           SKY/WX    TMP DP  RH WIND       PRES   REMARKS
GRAND CANYON   CLOUDY    69  45  41 NE5       30.30R
WILLIAMS       CLOUDY    63  55  77 CALM      30.39F
PRESCOTT       PTCLDY    63  57  81 SW8       30.18S
FLAGSTAFF      CLOUDY    56  55  97 CALM      30.33F
PAYSON         CLEAR     72  50  46 CALM      30.18S
PAGE           CLOUDY    83  45  26 W5        30.09R
$$

AZZ009>014-017-261200-
NORTHEAST ARIZONA

CITY           SKY/WX    TMP DP  RH WIND       PRES   REMARKS
WINSLOW        MOCLDY    70  51  51 CALM      30.18S
SAINT JOHNS    CLOUDY    71  52  50 CALM      30.24R
WINDOW ROCK    CLOUDY    66  57  72 S3        30.35R
SHOW LOW       MOCLDY    63  50  63 CALM      30.29R
$$

AZZ023-261200-
GREATER PHOENIX AREA

CITY           SKY/WX    TMP DP  RH WIND       PRES   REMARKS
PHOENIX        MOCLDY    92  56  29 SW5       29.81R
BUCKEYE        PTCLDY    84  59  42 CALM      29.84S
LUKE AFB       PTCLDY    88  57  35 CALM      29.81S
DEER VALLEY    PTCLDY    90  53  28 NW6       29.84R
SCOTTSDALE     PTCLDY    89  53  29 CALM      29.85S
MESA-GATEWAY   CLEAR     88  55  33 W3        29.85S
$$

AZZ027-028-261200-
SOUTHWEST MARICOPA COUNTY AND PINAL COUNTY

CITY           SKY/WX    TMP DP  RH WIND       PRES   REMARKS
CASA GRANDE    PTCLDY    90  55  31 CALM      29.87R
GILA BEND      FAIR      89  60  37 W3        29.82R
$$

AZZ503-504-507>509-261200-
SOUTHEAST ARIZONA

CITY           SKY/WX    TMP DP  RH WIND       PRES   REMARKS
TUCSON         CLEAR     86  58  38 CALM      29.97S
DAVIS-MONTHAN  CLEAR     83  59  42 S2        29.95F
NOGALES        MOCLDY    75  59  57 CALM      30.07R
SIERRA VISTA   CLOUDY    78  55  43 N2        30.14R
DOUGLAS        CLOUDY    72  66  81 E8        30.10R
SAFFORD        MOCLDY    79  60  52 E10       30.01S
$$

AZZ020-021-025-026-031-261200-
SOUTHWEST ARIZONA

CITY           SKY/WX    TMP DP  RH WIND       PRES   REMARKS
YUMA           MOCLDY    86  73  65 SE5       29.76R
$$

CAZ031-033-041-043-047-048-061-261200-
SOUTHERN CALIFORNIA

CITY           SKY/WX    TMP DP  RH WIND       PRES   REMARKS
DOWNTOWN L.A.  CLEAR     69  64  84 CALM      29.89F
L.A. AIRPORT   PTCLDY    68  64  87 W5        29.90F
SAN DIEGO      PTCLDY    68  66  93 CALM      29.90F
BURBANK        PTCLDY    73  63  70 CALM      29.91S
ONTARIO        PTCLDY    73  59  61 CALM      29.92S
RIVERSIDE      CLEAR     73  60  63 W3        29.92S
PALM SPRINGS   PTCLDY    88  56  33 S7        29.82S
EL CENTRO NAS  CLOUDY    90  63  40 NW3       29.74F
IMPERIAL       CLOUDY    89  67  47 W7        29.72F
BLYTHE         MOCLDY    91  65  41 E7        29.77S
NEEDLES        CLEAR     95  58  28 CALM      29.81S
$$

NVZ020-UTZ003-261200-
SOUTHERN NEVADA-UTAH

CITY           SKY/WX    TMP DP  RH WIND       PRES   REMARKS
LAS VEGAS      PTCLDY    91  40  16 SW5       29.84R
SALT LAKE CITY PTCLDY    79  45  29 SE7       30.01F
$$

NMZ009-TXZ055-261200-
NEW MEXICO-WEST TEXAS

CITY           SKY/WX    TMP DP  RH WIND       PRES   REMARKS
ALBUQUERQUE    MOCLDY    72  58  61 E8        30.26R
EL PASO        PTCLDY    78  59  51 N17       30.11R
$$


........................KEY........................
SKY/WX - SKY CONDITION/WEATHER
TMP    - TEMPERATURE IN FAHRENHEIT
DP     - DEW POINT IN FAHRENHEIT
RH     - RELATIVE HUMIDITY IN PERCENT
WIND   - DIRECTION AND SPEED IN MILES PER HOUR (MPH)
VRB    - VARIABLE WIND DIRECTION
PRES   - MEAN SEA LEVEL PRESSURE IN INCHES OF MERCURY
         F - FALLING PRESSURE   R - RISING PRESSURE
         S - STEADY PRESSURE
VSB    - VISIBILITY IN MILES
HX     - HEAT INDEX IN FAHRENHEIT
WCI    - WIND CHILL INDEX IN FAHRENHEIT
TC     - TEMPERATURE IN CELSIUS WHICH IS ALSO KNOWN AS
         TEMPERATURE IN CENTIGRADE
AFB    - AIR FORCE BASE
         LUKE AFB IS LUKE AIR FORCE BASE
         DAVIS-MONTHAN IS DAVIS-MONTHAN AIR FORCE BASE
NAS    - NAVAL AIR STATION
         EL CENTRO NAS IS EL CENTRO NAVAL AIR STATION
N/A    - NOT AVAILABLE





USA.gov is the U.S. government's official web portal to all federal, state and local government web resources and services.